• In Deutschland
  • Länderverzeichnis
  • Für 7 Tage
  • Wassertemperatur
  • Satellitenkarten
  • Wetterkarte
  • Widgets
  • user-avatar
    Anmelden

    Stündliche Wetter La Massana

    Heute, 29 April, Samstag

    Zeit Temperatur Niederschläge Wind Luftdruck Luftfeuchtigkeit
    00:00 -7°C° 0 mm 0 m/S 605 mmHg 90%
    01:00 -7°C° 0 mm 0 m/S 605 mmHg 89%
    02:00 -7°C° 0 mm 0 m/S 605 mmHg 88%
    03:00 -7°C° 0 mm 0 m/S 605 mmHg 88%
    04:00 -6°C° 0 mm 1 m/S 605 mmHg 83%
    05:00 -3°C° 0 mm 1 m/S 606 mmHg 77%
    06:00 -1°C° 0 mm 1 m/S 607 mmHg 72%
    07:00 +1°C° 0 mm 1 m/S 608 mmHg 63%
    08:00 +3°C° 0 mm 2 m/S 608 mmHg 55%
    09:00 +5°C° 0 mm 2 m/S 609 mmHg 46%
    10:00 +6°C° 0 mm 2 m/S 609 mmHg 44%
    11:00 +7°C° 0 mm 3 m/S 610 mmHg 42%
    12:00 +9°C° 0 mm 3 m/S 610 mmHg 40%
    13:00 +8°C° 0 mm 3 m/S 610 mmHg 42%
    14:00 +7°C° 0 mm 4 m/S 609 mmHg 43%
    15:00 +7°C° 0 mm 4 m/S 609 mmHg 45%
    16:00 +5°C° 0 mm 3 m/S 608 mmHg 56%
    17:00 +4°C° 0 mm 3 m/S 607 mmHg 66%
    18:00 +3°C° 0 mm 2 m/S 606 mmHg 77%
    19:00 +2°C° 0 mm 2 m/S 606 mmHg 82%
    20:00 -1°C° 0 mm 2 m/S 606 mmHg 87%
    21:00 -2°C° 0 mm 2 m/S 605 mmHg 92%
    22:00 -2°C° 0 mm 2 m/S 605 mmHg 91%
    23:00 -1°C° 0 mm 2 m/S 605 mmHg 91%

    Morgen, 30 April, Sonntag

    Zeit Temperatur Niederschläge Wind Luftdruck Luftfeuchtigkeit
    00:00 -1°C° 0 mm 2 m/S 605 mmHg 90%
    01:00 -1°C° 0 mm 2 m/S 605 mmHg 90%
    02:00 -1°C° 0 mm 2 m/S 605 mmHg 90%
    03:00 -2°C° 0 mm 2 m/S 604 mmHg 90%
    04:00 -1°C° 0,1 mm 2 m/S 604 mmHg 89%
    05:00 +1°C° 0,1 mm 2 m/S 605 mmHg 87%
    06:00 +1°C° 0,1 mm 2 m/S 605 mmHg 86%
    07:00 +2°C° 0,1 mm 3 m/S 605 mmHg 80%
    08:00 +4°C° 0,1 mm 3 m/S 606 mmHg 74%
    09:00 +5°C° 0,1 mm 3 m/S 606 mmHg 68%
    10:00 +7°C° 0,1 mm 3 m/S 607 mmHg 63%
    11:00 +8°C° 0,1 mm 3 m/S 607 mmHg 58%
    12:00 +8°C° 0,1 mm 4 m/S 607 mmHg 53%
    13:00 +8°C° 0,2 mm 4 m/S 606 mmHg 57%
    14:00 +7°C° 0,2 mm 4 m/S 606 mmHg 61%
    15:00 +7°C° 0,2 mm 4 m/S 606 mmHg 65%
    16:00 +5°C° 0,4 mm 4 m/S 606 mmHg 72%
    17:00 +3°C° 0,4 mm 3 m/S 605 mmHg 80%
    18:00 +1°C° 0,4 mm 3 m/S 605 mmHg 88%
    19:00 +1°C° 0,2 mm 2 m/S 605 mmHg 90%
    20:00 -1°C° 0,2 mm 2 m/S 605 mmHg 91%
    21:00 -1°C° 0,2 mm 1 m/S 605 mmHg 93%
    22:00 -1°C° 0,1 mm 1 m/S 606 mmHg 93%
    23:00 -1°C° 0,1 mm 1 m/S 606 mmHg 93%

    übermorgen, 1 Mai, Montag

    Zeit Temperatur Niederschläge Wind Luftdruck Luftfeuchtigkeit
    00:00 -3°C° 0,1 mm 2 m/S 606 mmHg 92%
    01:00 -4°C° 0 mm 2 m/S 606 mmHg 92%
    02:00 -4°C° 0 mm 2 m/S 606 mmHg 92%
    03:00 -5°C° 0 mm 2 m/S 606 mmHg 92%
    04:00 -5°C° 0 mm 2 m/S 607 mmHg 89%
    05:00 -4°C° 0 mm 2 m/S 608 mmHg 86%
    06:00 -4°C° 0 mm 2 m/S 608 mmHg 83%
    07:00 -2°C° 0 mm 2 m/S 609 mmHg 74%
    08:00 0°C° 0 mm 3 m/S 610 mmHg 64%
    09:00 +2°C° 0 mm 3 m/S 611 mmHg 54%
    10:00 +3°C° 0 mm 3 m/S 612 mmHg 52%
    11:00 +4°C° 0 mm 3 m/S 613 mmHg 49%
    12:00 +6°C° 0 mm 2 m/S 613 mmHg 46%
    13:00 +6°C° 0 mm 2 m/S 613 mmHg 48%
    14:00 +6°C° 0 mm 2 m/S 613 mmHg 50%
    15:00 +6°C° 0 mm 2 m/S 613 mmHg 52%
    16:00 +5°C° 0 mm 2 m/S 613 mmHg 58%
    17:00 +4°C° 0 mm 2 m/S 612 mmHg 64%
    18:00 +4°C° 0 mm 1 m/S 612 mmHg 71%
    19:00 +2°C° 0 mm 1 m/S 612 mmHg 78%
    20:00 0°C° 0 mm 1 m/S 611 mmHg 84%
    21:00 -2°C° 0 mm 1 m/S 611 mmHg 91%
    22:00 -2°C° 0 mm 1 m/S 610 mmHg 91%
    23:00 -2°C° 0 mm 1 m/S 610 mmHg 90%

    2 Mai, Dienstag

    Zeit Temperatur Niederschläge Wind Luftdruck Luftfeuchtigkeit
    00:00 -2°C° 0 mm 1 m/S 610 mmHg 90%
    01:00 -2°C° 0 mm 1 m/S 610 mmHg 88%
    02:00 -2°C° 0 mm 1 m/S 610 mmHg 87%
    03:00 -2°C° 0 mm 1 m/S 610 mmHg 85%
    04:00 0°C° 0 mm 1 m/S 610 mmHg 80%
    05:00 +1°C° 0 mm 1 m/S 611 mmHg 75%
    06:00 +2°C° 0 mm 1 m/S 611 mmHg 70%
    07:00 +5°C° 0 mm 1 m/S 612 mmHg 64%
    08:00 +7°C° 0 mm 1 m/S 613 mmHg 58%
    09:00 +9°C° 0 mm 1 m/S 614 mmHg 51%
    10:00 +9°C° 0 mm 2 m/S 614 mmHg 51%
    11:00 +10°C° 0 mm 2 m/S 614 mmHg 50%
    12:00 +10°C° 0 mm 2 m/S 614 mmHg 50%
    13:00 +10°C° 0,1 mm 2 m/S 613 mmHg 53%
    14:00 +10°C° 0,1 mm 2 m/S 613 mmHg 56%
    15:00 +9°C° 0,1 mm 2 m/S 612 mmHg 58%
    16:00 +8°C° 0,1 mm 2 m/S 612 mmHg 64%
    17:00 +7°C° 0,1 mm 2 m/S 612 mmHg 70%
    18:00 +7°C° 0,1 mm 2 m/S 611 mmHg 76%
    19:00 +6°C° 0 mm 1 m/S 611 mmHg 81%
    20:00 +5°C° 0 mm 1 m/S 611 mmHg 86%
    21:00 +3°C° 0 mm 1 m/S 610 mmHg 92%
    22:00 +2°C° 0 mm 1 m/S 610 mmHg 92%
    23:00 +1°C° 0 mm 1 m/S 609 mmHg 93%

    3 Mai, Mittwoch

    Zeit Temperatur Niederschläge Wind Luftdruck Luftfeuchtigkeit
    00:00 0°C° 0 mm 1 m/S 609 mmHg 94%
    01:00 0°C° 0 mm 1 m/S 609 mmHg 94%
    02:00 0°C° 0 mm 1 m/S 609 mmHg 94%
    03:00 0°C° 0 mm 1 m/S 608 mmHg 94%
    04:00 +1°C° 0 mm 1 m/S 609 mmHg 92%
    05:00 +2°C° 0 mm 1 m/S 610 mmHg 89%
    06:00 +4°C° 0 mm 1 m/S 610 mmHg 87%
    07:00 +5°C° 0 mm 1 m/S 611 mmHg 79%
    08:00 +7°C° 0 mm 1 m/S 612 mmHg 71%
    09:00 +9°C° 0 mm 1 m/S 613 mmHg 63%
    10:00 +9°C° 0 mm 1 m/S 613 mmHg 63%
    11:00 +9°C° 0 mm 2 m/S 613 mmHg 63%
    12:00 +9°C° 0 mm 2 m/S 612 mmHg 63%
    13:00 +9°C° 0,2 mm 2 m/S 612 mmHg 65%
    14:00 +9°C° 0,2 mm 2 m/S 612 mmHg 67%
    15:00 +9°C° 0,2 mm 1 m/S 611 mmHg 69%
    16:00 +9°C° 0,2 mm 1 m/S 611 mmHg 73%
    17:00 +8°C° 0,2 mm 1 m/S 611 mmHg 78%
    18:00 +7°C° 0,2 mm 1 m/S 610 mmHg 83%
    19:00 +6°C° 0,1 mm 1 m/S 610 mmHg 87%
    20:00 +5°C° 0,1 mm 1 m/S 610 mmHg 91%
    21:00 +3°C° 0,1 mm 1 m/S 609 mmHg 95%
    22:00 +3°C° 0 mm 1 m/S 609 mmHg 95%
    23:00 +1°C° 0 mm 0 m/S 609 mmHg 96%

    4 Mai, Donnerstag

    Zeit Temperatur Niederschläge Wind Luftdruck Luftfeuchtigkeit
    00:00 +1°C° 0 mm 0 m/S 609 mmHg 96%
    01:00 +1°C° 0 mm 0 m/S 608 mmHg 96%
    02:00 0°C° 0 mm 0 m/S 608 mmHg 96%
    03:00 0°C° 0 mm 0 m/S 607 mmHg 96%
    04:00 +2°C° 0 mm 1 m/S 608 mmHg 94%
    05:00 +3°C° 0 mm 1 m/S 609 mmHg 93%
    06:00 +5°C° 0 mm 1 m/S 609 mmHg 91%
    07:00 +7°C° 0 mm 1 m/S 610 mmHg 81%
    08:00 +9°C° 0 mm 1 m/S 611 mmHg 71%
    09:00 +11°C° 0 mm 1 m/S 611 mmHg 61%
    10:00 +12°C° 0 mm 2 m/S 612 mmHg 56%
    11:00 +13°C° 0 mm 2 m/S 612 mmHg 52%
    12:00 +14°C° 0 mm 2 m/S 612 mmHg 47%
    13:00 +13°C° 0 mm 3 m/S 611 mmHg 49%
    14:00 +13°C° 0 mm 3 m/S 611 mmHg 50%
    15:00 +13°C° 0 mm 3 m/S 611 mmHg 52%
    16:00 +13°C° 0 mm 2 m/S 610 mmHg 59%
    17:00 +12°C° 0 mm 2 m/S 609 mmHg 65%
    18:00 +10°C° 0 mm 2 m/S 609 mmHg 71%
    19:00 +8°C° 0 mm 2 m/S 608 mmHg 78%
    20:00 +6°C° 0 mm 2 m/S 608 mmHg 84%
    21:00 +5°C° 0 mm 2 m/S 607 mmHg 90%
    22:00 +5°C° 0 mm 2 m/S 607 mmHg 89%
    23:00 +5°C° 0 mm 2 m/S 607 mmHg 87%
    Mehr zeigen